(142132) = 2002 RW13

Discovered at Anderson Mesa on 2002-09-04 by LONEOS.

Orbit

Orbit type: Main Belt

Note: WebGL enabled browser required.

epoch2023-02-25.0
epoch JD2460000.5
perihelion date2021-03-01.83935
perihelion JD2459275.33935
argument of perihelion (°)182.79467
ascending node (°)161.70405
inclination (°)6.15813
eccentricity0.1453591
perihelion distance (AU)2.0489042
Tisserand w.r.t. Jupiter3.5
ΔV w.r.t. Earth (km/sec)9.1
semimajor axis (AU)2.3973860
mean anomaly (°)192.54450
mean daily motion (°/day)0.26551980
aphelion distance (AU)2.746
period (years)3.71
P-vector [x]0.96353615
P-vector [y]-0.24337080
P-vector [z]-0.11121485
Q-vector [x]0.26545063
Q-vector [y]0.92170749
Q-vector [z]0.28282726
absolute magnitude16.36
phase slope0.15
uncertainty0
referenceMPO 745323
observations used686
oppositions15
arc length (days)7621
first opposition used2002
last opposition used2023
residual rms (arc-secs)0.75
perturbers coarse indicatorM-v
perturbers precise indicator003Ek
first observation date used2002-08-12.0
last observation date used2023-06-24.0
computer nameMPCLINUX
JD of orbit computation2456670.902953
perihelion JD uncertainty (days)4.4312E-05
argument of perihelion uncertainty (°)3.5050E-05
ascending node uncertainty (°)3.2604E-05
inclination uncertainty (°)5.5310E-06
eccentricity uncertainty 5.3822E-08
perihelion distance uncertainty (AU)1.3275E-07
Minimum Orbit Intersection Distances (in AU)
for orbit epoch: 2460000.5, reference: E2023-MD7
Mercury1.6605
Venus1.32311
Earth1.0397
Mars0.66536
Jupiter2.64149
Saturn6.50798
Uranus15.696
Neptune27.6405

Observations

700 total observations over interval: 2002 08 12.31282 – 2023 06 24.205305
These data are available for download (format description).

Date (UT) J2000 RA J2000 Dec Magn Location Ref
2002 08 12.31282 00 23 50.16 +01 56 06.7 19.3   704 – Lincoln Laboratory ETS, New Mexico MPS 82968
2002 08 12.32779 00 23 50.25 +01 56 05.7 19.9   704 – Lincoln Laboratory ETS, New Mexico MPS 82968
2002 08 12.34281 00 23 50.32 +01 56 01.9 19.5   704 – Lincoln Laboratory ETS, New Mexico MPS 82968
2002 08 12.37273 00 23 50.49 +01 55 55.1 19.6   704 – Lincoln Laboratory ETS, New Mexico MPS 82968
2002 09 04.29395 00 19 10.31 -00 27 21.8 18.2 R 699 – Lowell Observatory-LONEOS MPS 61567
2002 09 04.32205 00 19 09.30 -00 27 36.5   699 – Lowell Observatory-LONEOS MPS 61567
2002 09 04.35013 00 19 08.46 -00 27 51.3   699 – Lowell Observatory-LONEOS MPS 61567
2002 09 04.37822 00 19 07.46 -00 28 05.4   699 – Lowell Observatory-LONEOS MPS 61567
2002 09 05.27791 00 18 38.77 -00 35 52.9 18.8   704 – Lincoln Laboratory ETS, New Mexico MPS 61567
2002 09 05.29188 00 18 38.27 -00 35 59.8 19.2   704 – Lincoln Laboratory ETS, New Mexico MPS 61567
2002 09 05.30600 00 18 37.83 -00 36 09.2 19.6   704 – Lincoln Laboratory ETS, New Mexico MPS 61567
2002 09 05.31995 00 18 37.33 -00 36 15.8 19.4   704 – Lincoln Laboratory ETS, New Mexico MPS 61567
2002 09 05.33397 00 18 36.78 -00 36 22.6 18.9   704 – Lincoln Laboratory ETS, New Mexico MPS 61567
2002 09 07.26864 00 17 31.01 -00 53 32.3 18.5   704 – Lincoln Laboratory ETS, New Mexico MPS 61567
2002 09 07.29666 00 17 29.98 -00 53 47.1 19.0   704 – Lincoln Laboratory ETS, New Mexico MPS 61567
2002 09 07.31068 00 17 29.42 -00 53 55.2 18.8   704 – Lincoln Laboratory ETS, New Mexico MPS 61567
2002 09 07.32480 00 17 28.90 -00 54 02.9 18.8   704 – Lincoln Laboratory ETS, New Mexico MPS 61567
2002 09 15.49404 00 12 03.71 -02 10 45.5 18.2   644 – Palomar Mountain/NEAT MPS 61567
2002 09 15.50482 00 12 03.21 -02 10 51.9 18.4   644 – Palomar Mountain/NEAT MPS 61567
2002 09 15.51550 00 12 02.74 -02 10 57.9 18.4   644 – Palomar Mountain/NEAT MPS 61567
2002 09 16.34340 00 11 27.42 -02 18 56.1 19.2   608 – Haleakala-AMOS MPS 63402
2002 09 16.35441 00 11 26.91 -02 19 02.2 18.9   608 – Haleakala-AMOS MPS 63402
2002 09 16.36542 00 11 26.40 -02 19 08.7 19.0   608 – Haleakala-AMOS MPS 63403
2002 09 29.31980 00 01 37.65 -04 21 27.0 19.4   608 – Haleakala-AMOS MPS 63403
2002 09 29.33042 00 01 37.12 -04 21 32.8 19.4   608 – Haleakala-AMOS MPS 63403
2002 09 29.34124 00 01 36.62 -04 21 38.3 19.4   608 – Haleakala-AMOS MPS 63403
2002 10 01.25376 00 00 11.72 -04 38 22.9 18.0 R 699 – Lowell Observatory-LONEOS MPS 63403
2002 10 01.27134 00 00 10.90 -04 38 31.8   699 – Lowell Observatory-LONEOS MPS 63403
2002 10 01.28891 00 00 10.07 -04 38 41.7   699 – Lowell Observatory-LONEOS MPS 63403
2002 10 01.30646 00 00 09.35 -04 38 50.6   699 – Lowell Observatory-LONEOS MPS 63403
2002 10 02.44026 23 59 20.09 -04 48 27.4 20.2   608 – Haleakala-AMOS MPS 63403
2002 10 02.45081 23 59 19.56 -04 48 32.0 19.2   608 – Haleakala-AMOS MPS 63403
2002 10 02.46163 23 59 19.08 -04 48 38.6 20.2   608 – Haleakala-AMOS MPS 63403
2002 10 03.24481 23 58 45.81 -04 55 10.8 18.2   704 – Lincoln Laboratory ETS, New Mexico MPS 63403
2002 10 03.25981 23 58 45.14 -04 55 18.1 18.4   704 – Lincoln Laboratory ETS, New Mexico MPS 63403
2002 10 03.27483 23 58 44.41 -04 55 25.3 18.4   704 – Lincoln Laboratory ETS, New Mexico MPS 63403
2002 10 03.28985 23 58 43.77 -04 55 33.1 18.7   704 – Lincoln Laboratory ETS, New Mexico MPS 63403
2002 10 03.30470 23 58 43.08 -04 55 40.1 18.6   704 – Lincoln Laboratory ETS, New Mexico MPS 63403
2002 10 06.24574 23 56 42.22 -05 19 07.9 18.4   704 – Lincoln Laboratory ETS, New Mexico MPS 63403
2002 10 06.26081 23 56 41.66 -05 19 14.8 18.6   704 – Lincoln Laboratory ETS, New Mexico MPS 63403
2002 10 06.27554 23 56 40.97 -05 19 21.9 18.5   704 – Lincoln Laboratory ETS, New Mexico MPS 63403
2002 10 06.29010 23 56 40.40 -05 19 28.3 19.0   704 – Lincoln Laboratory ETS, New Mexico MPS 63403
2002 10 06.30496 23 56 39.73 -05 19 35.4 18.9   704 – Lincoln Laboratory ETS, New Mexico MPS 63403
2002 10 11.17760 23 53 39.70 -05 54 22.6 18.4   704 – Lincoln Laboratory ETS, New Mexico MPS 63403
2002 10 11.19262 23 53 39.11 -05 54 29.3 19.2   704 – Lincoln Laboratory ETS, New Mexico MPS 63403
2002 10 11.20766 23 53 38.66 -05 54 34.5 19.0   704 – Lincoln Laboratory ETS, New Mexico MPS 63403
2002 10 11.22256 23 53 38.13 -05 54 39.9 19.2   704 – Lincoln Laboratory ETS, New Mexico MPS 63403
2003 10 23.45811 09 09 42.40 +11 48 17.2 22.2 V 291 – LPL/Spacewatch II MPS 98759
2003 10 23.46257 09 09 42.64 +11 48 16.1 22.2 V 291 – LPL/Spacewatch II MPS 98759
2003 10 23.46661 09 09 42.96 +11 48 14.7 22.7 V 291 – LPL/Spacewatch II MPS 98759
2004 02 11.30185 09 10 56.42 +12 13 30.5 20.2 V 691 – Steward Observatory, Kitt Peak-Spacewatch MPS 98759
2004 02 11.32978 09 10 54.77 +12 13 41.2 20.3 V 691 – Steward Observatory, Kitt Peak-Spacewatch MPS 98759
2004 02 11.35902 09 10 53.06 +12 13 52.6 20.3 V 691 – Steward Observatory, Kitt Peak-Spacewatch MPS 98759
2004 02 29.16382 08 55 46.10 +14 03 45.7 21.2 V 691 – Steward Observatory, Kitt Peak-Spacewatch MPS 100681
2004 02 29.19112 08 55 44.94 +14 03 54.6 21.0 V 691 – Steward Observatory, Kitt Peak-Spacewatch MPS 100681
2004 02 29.21880 08 55 43.72 +14 04 04.0 21.0 V 691 – Steward Observatory, Kitt Peak-Spacewatch MPS 100681
2005 05 16.29551 15 45 29.25 -09 34 38.8 19.7 V 691 – Steward Observatory, Kitt Peak-Spacewatch MPS 134796
2005 05 16.31290 15 45 28.22 -09 34 34.1 19.7 V 691 – Steward Observatory, Kitt Peak-Spacewatch MPS 134796
2005 05 16.33034 15 45 27.18 -09 34 29.4 19.9 V 691 – Steward Observatory, Kitt Peak-Spacewatch MPS 134796
2005 05 20.31285 15 41 36.63 -09 17 31.0 19.2 V G96 – Mt. Lemmon Survey MPS 134796
2005 05 20.31949 15 41 36.24 -09 17 29.5 19.5 V G96 – Mt. Lemmon Survey MPS 134796
2005 05 20.32608 15 41 35.84 -09 17 27.5 19.0 V G96 – Mt. Lemmon Survey MPS 134796
2005 05 20.33266 15 41 35.44 -09 17 26.3 19.4 V G96 – Mt. Lemmon Survey MPS 134796
2005 06 03.54789 15 28 27.23 -08 31 58.1 19.7 R E12 – Siding Spring Survey MPS 135584
2005 06 03.55549 15 28 26.76 -08 31 56.6 18.6 R E12 – Siding Spring Survey MPS 135584
2005 06 03.56310 15 28 26.38 -08 31 55.9 19.8 R E12 – Siding Spring Survey MPS 135584
2005 06 03.57072 15 28 25.99 -08 31 54.6 19.0 R E12 – Siding Spring Survey MPS 135584
2005 06 09.16366 15 23 59.66 -08 22 16.7 19.9 V 691 – Steward Observatory, Kitt Peak-Spacewatch MPS 135925
2005 06 09.18111 15 23 58.86 -08 22 15.8 19.7 V 691 – Steward Observatory, Kitt Peak-Spacewatch MPS 135925
2005 06 09.19853 15 23 58.04 -08 22 14.1 19.7 V 691 – Steward Observatory, Kitt Peak-Spacewatch MPS 135925
2005 06 13.16636 15 21 12.69 -08 18 29.1 20.0 V 691 – Steward Observatory, Kitt Peak-Spacewatch MPS 136500
2005 06 13.18378 15 21 11.98 -08 18 28.8 19.8 V 691 – Steward Observatory, Kitt Peak-Spacewatch MPS 136500
2005 06 13.20119 15 21 11.26 -08 18 28.1 19.9 V 691 – Steward Observatory, Kitt Peak-Spacewatch MPS 136500
2005 06 23.19015 15 15 59.16 -08 20 48.2 19.8   644 – Palomar Mountain/NEAT MPS 136961
2005 06 23.21196 15 15 58.59 -08 20 49.6 20.2   644 – Palomar Mountain/NEAT MPS 136961
2005 06 23.23844 15 15 57.95 -08 20 51.0 19.6   644 – Palomar Mountain/NEAT MPS 136961
2006 09 17.45144 03 54 00.46 +13 15 07.4 19.5 R 699 – Lowell Observatory-LONEOS MPS 179202
2006 09 17.46606 03 54 00.85 +13 15 05.8   699 – Lowell Observatory-LONEOS MPS 179202
2006 09 17.48068 03 54 01.40 +13 15 03.5   699 – Lowell Observatory-LONEOS MPS 179202
2006 09 17.49530 03 54 01.81 +13 15 00.2   699 – Lowell Observatory-LONEOS MPS 179202
2006 09 18.39984 03 54 29.95 +13 12 17.8 20.1 V 703 – Catalina Sky Survey MPS 179202
2006 09 18.40933 03 54 30.09 +13 12 14.1 19.5 V 703 – Catalina Sky Survey MPS 179202
2006 09 18.41888 03 54 30.45 +13 12 12.6 19.8 V 703 – Catalina Sky Survey MPS 179202
2006 09 18.42844 03 54 30.74 +13 12 11.8 19.5 V 703 – Catalina Sky Survey MPS 179202
2006 10 02.45435 03 58 21.36 +12 17 47.0 19.3 V G96 – Mt. Lemmon Survey MPS 182536
2006 10 02.46567 03 58 21.36 +12 17 43.9 19.1 V G96 – Mt. Lemmon Survey MPS 182536
2006 10 02.47132 03 58 21.36 +12 17 42.3 19.4 V G96 – Mt. Lemmon Survey MPS 182536
2006 10 16.04815 03 55 42.91 +11 07 19.4 18.6 R 012 – Uccle MPS 182838
2006 10 16.05649 03 55 42.64 +11 07 16.3 19.4 R 012 – Uccle MPS 182838
